When you browse on this site, cookies collect data to enhance your experience and personalize the content and advertising you see.
Visit our Privacy Policy to learn more. By continuing to use the site, you agree to this use of cookies and data.
  • In Romania
  • List of Countries
  • For 7 days
  • Water Temperature
  • Satellite Maps
  • Weather Map
  • Weather Widgets
  • user-avatar
    Login

    Hourly Weather Arpajon

    Today, 24 April, Wednesday

    Time Temperature Precipitation Wind Pressure Humidity
    00:00 +14°C° 0 mm 2 mps 738 mmHg 83%
    01:00 +13°C° 0.3 mm 3 mps 738 mmHg 84%
    02:00 +13°C° 0.3 mm 3 mps 738 mmHg 84%
    03:00 +12°C° 0.3 mm 4 mps 737 mmHg 85%
    04:00 +13°C° 0 mm 4 mps 738 mmHg 84%
    05:00 +13°C° 0 mm 5 mps 738 mmHg 83%
    06:00 +14°C° 0 mm 5 mps 738 mmHg 80%
    07:00 +14°C° 0 mm 5 mps 738 mmHg 78%
    08:00 +14°C° 0 mm 6 mps 738 mmHg 77%
    09:00 +14°C° 0 mm 7 mps 739 mmHg 75%
    10:00 +15°C° 0 mm 6 mps 739 mmHg 70%
    11:00 +15°C° 0 mm 6 mps 740 mmHg 64%
    12:00 +16°C° 0 mm 6 mps 740 mmHg 59%
    13:00 +16°C° 0.3 mm 6 mps 740 mmHg 59%
    14:00 +16°C° 0.3 mm 7 mps 740 mmHg 60%
    15:00 +16°C° 0.3 mm 7 mps 741 mmHg 60%
    16:00 +15°C° 0.1 mm 6 mps 741 mmHg 62%
    17:00 +15°C° 0.1 mm 5 mps 740 mmHg 64%
    18:00 +14°C° 0.1 mm 4 mps 740 mmHg 66%
    19:00 +13°C° 0 mm 4 mps 741 mmHg 67%
    20:00 +13°C° 0 mm 4 mps 741 mmHg 67%
    21:00 +12°C° 0 mm 4 mps 741 mmHg 68%
    22:00 +12°C° 0 mm 4 mps 741 mmHg 69%
    23:00 +12°C° 0 mm 5 mps 741 mmHg 70%

    Tomorrow, 25 April, Thursday

    Time Temperature Precipitation Wind Pressure Humidity
    00:00 +12°C° 0 mm 5 mps 741 mmHg 71%
    01:00 +12°C° 0.2 mm 5 mps 741 mmHg 73%
    02:00 +12°C° 0.2 mm 5 mps 741 mmHg 75%
    03:00 +10°C° 0.2 mm 6 mps 741 mmHg 77%
    04:00 +10°C° 0.1 mm 6 mps 741 mmHg 79%
    05:00 +10°C° 0.1 mm 6 mps 741 mmHg 80%
    06:00 +10°C° 0.1 mm 6 mps 741 mmHg 81%
    07:00 +10°C° 0.1 mm 6 mps 742 mmHg 81%
    08:00 +10°C° 0.1 mm 6 mps 743 mmHg 81%
    09:00 +10°C° 0.1 mm 6 mps 743 mmHg 80%
    10:00 +11°C° 0.2 mm 6 mps 744 mmHg 74%
    11:00 +13°C° 0.2 mm 6 mps 744 mmHg 69%
    12:00 +14°C° 0.2 mm 6 mps 745 mmHg 63%
    13:00 +13°C° 0.2 mm 6 mps 745 mmHg 64%
    14:00 +13°C° 0.2 mm 5 mps 746 mmHg 65%
    15:00 +13°C° 0.2 mm 5 mps 746 mmHg 65%
    16:00 +12°C° 0.3 mm 5 mps 746 mmHg 68%
    17:00 +12°C° 0.3 mm 5 mps 747 mmHg 70%
    18:00 +11°C° 0.3 mm 4 mps 747 mmHg 73%
    19:00 +11°C° 0.1 mm 4 mps 748 mmHg 75%
    20:00 +10°C° 0.1 mm 4 mps 748 mmHg 78%
    21:00 +9°C° 0.1 mm 3 mps 749 mmHg 80%
    22:00 +8°C° 0 mm 4 mps 749 mmHg 82%
    23:00 +8°C° 0 mm 4 mps 749 mmHg 83%

    Day after tomorrow, 26 April, Friday

    Time Temperature Precipitation Wind Pressure Humidity
    00:00 +7°C° 0 mm 4 mps 749 mmHg 84%
    01:00 +7°C° 0 mm 4 mps 749 mmHg 84%
    02:00 +6°C° 0 mm 4 mps 749 mmHg 85%
    03:00 +6°C° 0 mm 4 mps 750 mmHg 85%
    04:00 +6°C° 0 mm 4 mps 750 mmHg 82%
    05:00 +8°C° 0 mm 3 mps 750 mmHg 80%
    06:00 +8°C° 0 mm 3 mps 751 mmHg 77%
    07:00 +10°C° 0 mm 4 mps 751 mmHg 70%
    08:00 +12°C° 0 mm 4 mps 751 mmHg 62%
    09:00 +14°C° 0 mm 5 mps 751 mmHg 55%
    10:00 +15°C° 0 mm 5 mps 752 mmHg 53%
    11:00 +16°C° 0 mm 5 mps 752 mmHg 51%
    12:00 +16°C° 0 mm 5 mps 752 mmHg 49%
    13:00 +16°C° 0.1 mm 5 mps 752 mmHg 52%
    14:00 +16°C° 0.1 mm 5 mps 752 mmHg 54%
    15:00 +16°C° 0.1 mm 6 mps 752 mmHg 57%
    16:00 +15°C° 0.3 mm 5 mps 752 mmHg 63%
    17:00 +14°C° 0.3 mm 4 mps 753 mmHg 69%
    18:00 +13°C° 0.3 mm 4 mps 753 mmHg 76%
    19:00 +12°C° 0.2 mm 4 mps 754 mmHg 78%
    20:00 +11°C° 0.2 mm 3 mps 754 mmHg 79%
    21:00 +10°C° 0.2 mm 3 mps 755 mmHg 81%
    22:00 +10°C° 0 mm 4 mps 754 mmHg 81%
    23:00 +8°C° 0 mm 4 mps 754 mmHg 82%

    27 April, Saturday

    Time Temperature Precipitation Wind Pressure Humidity
    00:00 +7°C° 0 mm 5 mps 754 mmHg 82%
    01:00 +7°C° 0.1 mm 5 mps 753 mmHg 83%
    02:00 +7°C° 0.1 mm 6 mps 753 mmHg 84%
    03:00 +6°C° 0.1 mm 7 mps 752 mmHg 85%
    04:00 +6°C° 0.4 mm 7 mps 752 mmHg 82%
    05:00 +8°C° 0.4 mm 7 mps 752 mmHg 80%
    06:00 +8°C° 0.4 mm 6 mps 751 mmHg 77%
    07:00 +7°C° 0.1 mm 8 mps 751 mmHg 76%
    08:00 +8°C° 0.1 mm 9 mps 751 mmHg 75%
    09:00 +8°C° 0.1 mm 10 mps 751 mmHg 74%
    10:00 +8°C° 0.6 mm 10 mps 751 mmHg 74%
    11:00 +8°C° 0.6 mm 10 mps 751 mmHg 74%
    12:00 +8°C° 0.6 mm 10 mps 751 mmHg 74%
    13:00 +8°C° 0.5 mm 10 mps 752 mmHg 76%
    14:00 +8°C° 0.5 mm 10 mps 752 mmHg 77%
    15:00 +8°C° 0.5 mm 10 mps 752 mmHg 78%
    16:00 +7°C° 0.2 mm 9 mps 753 mmHg 78%
    17:00 +7°C° 0.2 mm 9 mps 753 mmHg 78%
    18:00 +7°C° 0.2 mm 9 mps 754 mmHg 78%
    19:00 +7°C° 0.1 mm 9 mps 754 mmHg 77%
    20:00 +7°C° 0.1 mm 8 mps 755 mmHg 76%
    21:00 +7°C° 0.1 mm 8 mps 756 mmHg 76%
    22:00 +6°C° 0 mm 7 mps 756 mmHg 76%
    23:00 +6°C° 0 mm 7 mps 756 mmHg 76%

    28 April, Sunday

    Time Temperature Precipitation Wind Pressure Humidity
    00:00 +6°C° 0 mm 7 mps 756 mmHg 76%
    01:00 +7°C° 0.1 mm 6 mps 757 mmHg 76%
    02:00 +7°C° 0.1 mm 6 mps 757 mmHg 75%
    03:00 +7°C° 0.1 mm 6 mps 757 mmHg 74%
    04:00 +7°C° 0 mm 6 mps 758 mmHg 75%
    05:00 +6°C° 0 mm 5 mps 758 mmHg 76%
    06:00 +6°C° 0 mm 5 mps 758 mmHg 77%
    07:00 +7°C° 0 mm 5 mps 759 mmHg 73%
    08:00 +10°C° 0 mm 4 mps 759 mmHg 69%
    09:00 +11°C° 0 mm 4 mps 759 mmHg 65%
    10:00 +11°C° 0 mm 4 mps 759 mmHg 63%
    11:00 +12°C° 0 mm 4 mps 759 mmHg 61%
    12:00 +13°C° 0 mm 4 mps 759 mmHg 59%
    13:00 +13°C° 0 mm 4 mps 759 mmHg 56%
    14:00 +13°C° 0 mm 4 mps 759 mmHg 53%
    15:00 +14°C° 0 mm 4 mps 759 mmHg 50%
    16:00 +13°C° 0 mm 4 mps 759 mmHg 52%
    17:00 +12°C° 0 mm 3 mps 759 mmHg 54%
    18:00 +12°C° 0 mm 3 mps 759 mmHg 56%
    19:00 +10°C° 0 mm 3 mps 759 mmHg 58%
    20:00 +9°C° 0 mm 3 mps 760 mmHg 60%
    21:00 +8°C° 0 mm 2 mps 760 mmHg 62%
    22:00 +8°C° 0 mm 2 mps 760 mmHg 65%
    23:00 +7°C° 0 mm 2 mps 760 mmHg 68%

    29 April, Monday

    Time Temperature Precipitation Wind Pressure Humidity
    00:00 +8°C° 0 mm 1 mps 760 mmHg 70%
    01:00 +7°C° 0 mm 1 mps 759 mmHg 72%
    02:00 +7°C° 0 mm 1 mps 759 mmHg 75%
    03:00 +7°C° 0 mm 1 mps 759 mmHg 77%
    04:00 +7°C° 0 mm 1 mps 759 mmHg 77%
    05:00 +7°C° 0 mm 1 mps 759 mmHg 77%
    06:00 +8°C° 0 mm 1 mps 759 mmHg 77%
    07:00 +9°C° 0 mm 1 mps 759 mmHg 71%
    08:00 +10°C° 0 mm 2 mps 758 mmHg 64%
    09:00 +12°C° 0 mm 2 mps 758 mmHg 57%
    10:00 +13°C° 0 mm 2 mps 758 mmHg 53%
    11:00 +15°C° 0 mm 2 mps 757 mmHg 49%
    12:00 +16°C° 0 mm 2 mps 757 mmHg 44%
    13:00 +16°C° 0 mm 3 mps 756 mmHg 44%
    14:00 +17°C° 0 mm 3 mps 756 mmHg 44%
    15:00 +17°C° 0 mm 3 mps 755 mmHg 43%
    16:00 +16°C° 0 mm 3 mps 755 mmHg 49%
    17:00 +16°C° 0 mm 3 mps 755 mmHg 55%
    18:00 +14°C° 0 mm 3 mps 755 mmHg 61%
    19:00 +13°C° 0 mm 3 mps 755 mmHg 67%
    20:00 +12°C° 0 mm 3 mps 755 mmHg 72%
    21:00 +11°C° 0 mm 3 mps 755 mmHg 77%
    22:00 +10°C° 0 mm 3 mps 755 mmHg 80%
    23:00 +10°C° 0 mm 3 mps 754 mmHg 82%
    Show more